,,,PA_Meas_PMT16A,,PR_Meas_QMR101_102,,RH_Meas_QMH101,,SR_Meas_QMS101,,TA_Meas_QMH101,,GenWind,,GenWind,
date,time,status,PA,status,PR,status,RH,status,SR,status,TA,status,DirAvg,status,SpdAvg,
2009-05-08, 00:00:04,VALID,1004.19,VALID,0,VALID,93.3317,VALID,0,VALID,24.8697,VALID,37,VALID,0.0453125,
2009-05-08, 00:01:04,VALID,1004.16,VALID,0,VALID,93.2097,VALID,0,VALID,24.8697,VALID,37,VALID,0.0492188,
2009-05-08, 00:02:04,VALID,1004.16,VALID,0,VALID,93.141,VALID,0,VALID,24.9087,VALID,37,VALID,0.123438,
2009-05-08, 00:03:04,VALID,1004.15,VALID,0,VALID,93.0647,VALID,0,VALID,24.9087,VALID,9,VALID,0.0582031,
2009-05-08, 00:04:04,VALID,1004.15,VALID,0,VALID,93.0037,VALID,0,VALID,24.9476,VALID,6,VALID,0.342969,
2009-05-08, 00:05:04,VALID,1004.13,VALID,0,VALID,92.9884,VALID,0,VALID,25.0274,VALID,2,VALID,0.358984,
2009-05-08, 00:06:04,VALID,1004.14,VALID,0,VALID,92.7977,VALID,0,VALID,25.045,VALID,2,VALID,0,
2009-05-08, 00:07:04,VALID,1004.11,VALID,0,VALID,92.6299,VALID,0,VALID,25.0839,VALID,2,VALID,0.254297,
2009-05-08, 00:08:04,VALID,1004.14,VALID,0,VALID,92.462,VALID,0,VALID,25.1034,VALID,2,VALID,0,
2009-05-08, 00:09:04,VALID,1004.11,VALID,0,VALID,92.3323,VALID,0,VALID,25.1229,VALID,359,VALID,0.277734,
2009-05-08, 00:10:04,VALID,1004.13,VALID,0,VALID,92.2637,VALID,0,VALID,25.1423,VALID,359,VALID,0,
2009-05-08, 00:11:04,VALID,1004.13,VALID,0,VALID,92.1874,VALID,0,VALID,25.1423,VALID,359,VALID,0,
2009-05-08, 00:12:04,VALID,1004.11,VALID,0,VALID,92.0424,VALID,0,VALID,25.1656,VALID,359,VALID,0,
2009-05-08, 00:13:04,VALID,1004.1,VALID,0,VALID,91.9585,VALID,0,VALID,25.1248,VALID,359,VALID,0,
2009-05-08, 00:14:04,VALID,1004.11,VALID,0,VALID,91.8822,VALID,0,VALID,25.1053,VALID,359,VALID,0,
2009-05-08, 00:15:04,VALID,1004.13,VALID,0,VALID,91.8288,VALID,0,VALID,25.1072,VALID,359,VALID,0,
2009-05-08, 00:16:04,VALID,1004.12,VALID,0,VALID,91.8365,VALID,0,VALID,25.0877,VALID,359,VALID,0,
2009-05-08, 00:17:04,VALID,1004.15,VALID,0,VALID,91.8288,VALID,0,VALID,25.0469,VALID,359,VALID,0,
2009-05-08, 00:18:04,VALID,1004.14,VALID,0,VALID,91.7144,VALID,0,VALID,24.9885,VALID,359,VALID,0.0949219,
2009-05-08, 00:19:04,VALID,1004.15,VALID,0,VALID,91.6686,VALID,0,VALID,24.9495,VALID,359,VALID,0.114453,
2009-05-08, 00:20:04,VALID,1004.12,VALID,0,VALID,91.7678,VALID,0,VALID,24.8911,VALID,359,VALID,0,
2009-05-08, 00:21:04,VALID,1004.13,VALID,0,VALID,91.867,VALID,0,VALID,24.8716,VALID,359,VALID,0,
2009-05-08, 00:22:04,VALID,1004.11,VALID,0,VALID,91.9585,VALID,0,VALID,24.8132,VALID,359,VALID,0,
2009-05-08, 00:23:04,VALID,1004.1,VALID,0,VALID,92.0577,VALID,0,VALID,24.7937,VALID,359,VALID,0,
2009-05-08, 00:24:04,VALID,1004.09,VALID,0,VALID,92.1492,VALID,0,VALID,24.7548,VALID,359,VALID,0,
2009-05-08, 00:25:04,VALID,1004.1,VALID,0,VALID,92.2332,VALID,0,VALID,24.7177,VALID,359,VALID,0,
2009-05-08, 00:26:04,VALID,1004.11,VALID,0,VALID,92.3247,VALID,0,VALID,24.6983,VALID,359,VALID,0,
2009-05-08, 00:27:04,VALID,1004.09,VALID,0,VALID,92.3323,VALID,0,VALID,24.6769,VALID,359,VALID,0,
2009-05-08, 00:28:04,VALID,1004.06,VALID,0,VALID,92.3781,VALID,0,VALID,24.6166,VALID,359,VALID,0,
2009-05-08, 00:29:04,VALID,1004.06,VALID,0,VALID,92.401,VALID,0,VALID,24.5777,VALID,359,VALID,0,
2009-05-08, 00:30:04,VALID,1004.03,VALID,0,VALID,92.4239,VALID,0,VALID,24.5388,VALID,359,VALID,0,
2009-05-08, 00:31:04,VALID,1004,VALID,0,VALID,92.4925,VALID,0,VALID,24.4998,VALID,359,VALID,0,
2009-05-08, 00:32:04,VALID,1003.98,VALID,0,VALID,92.7138,VALID,0,VALID,24.4998,VALID,359,VALID,0,
2009-05-08, 00:33:04,VALID,1003.93,VALID,0,VALID,92.8435,VALID,0,VALID,24.5193,VALID,359,VALID,0,
2009-05-08, 00:34:04,VALID,1003.94,VALID,0,VALID,92.935,VALID,0,VALID,24.5193,VALID,359,VALID,0,
2009-05-08, 00:35:04,VALID,1003.94,VALID,0,VALID,93.0037,VALID,0,VALID,24.4998,VALID,359,VALID,0,
2009-05-08, 00:36:04,VALID,1003.93,VALID,0,VALID,92.9961,VALID,0,VALID,24.4804,VALID,359,VALID,0,
2009-05-08, 00:37:04,VALID,1003.88,VALID,0,VALID,93.0266,VALID,0,VALID,24.4804,VALID,359,VALID,0,
2009-05-08, 00:38:04,VALID,1003.9,VALID,0,VALID,93.1105,VALID,0,VALID,24.4804,VALID,359,VALID,0,
2009-05-08, 00:39:04,VALID,1003.88,VALID,0,VALID,93.1105,VALID,0,VALID,24.4609,VALID,359,VALID,0,
2009-05-08, 00:40:04,VALID,1003.88,VALID,0,VALID,93.1105,VALID,0,VALID,24.422,VALID,359,VALID,0,
2009-05-08, 00:41:04,VALID,1003.86,VALID,0,VALID,93.1639,VALID,0.100563,VALID,24.422,VALID,359,VALID,0,
2009-05-08, 00:42:04,VALID,1003.84,VALID,0,VALID,93.1944,VALID,0,VALID,24.4043,VALID,359,VALID,0,
2009-05-08, 00:43:04,VALID,1003.8,VALID,0,VALID,93.1868,VALID,0,VALID,24.3636,VALID,359,VALID,0,
2009-05-08, 00:44:04,VALID,1003.77,VALID,0,VALID,93.2554,VALID,0,VALID,24.3654,VALID,359,VALID,0,
2009-05-08, 00:45:04,VALID,1003.74,VALID,0,VALID,93.2478,VALID,0,VALID,24.3459,VALID,359,VALID,0,
2009-05-08, 00:46:04,VALID,1003.73,VALID,0,VALID,93.2783,VALID,0,VALID,24.3459,VALID,359,VALID,0,
2009-05-08, 00:47:04,VALID,1003.67,VALID,0,VALID,93.2783,VALID,0,VALID,24.3265,VALID,359,VALID,0,
2009-05-08, 00:48:04,VALID,1003.69,VALID,0,VALID,93.3317,VALID,0,VALID,24.307,VALID,359,VALID,0,
2009-05-08, 00:49:04,VALID,1003.68,VALID,0,VALID,93.4004,VALID,0,VALID,24.307,VALID,359,VALID,0,
2009-05-08, 00:50:04,VALID,1003.65,VALID,0,VALID,93.469,VALID,0,VALID,24.307,VALID,359,VALID,0,
2009-05-08, 00:51:04,VALID,1003.64,VALID,0,VALID,93.4843,VALID,0,VALID,24.3265,VALID,359,VALID,0,
2009-05-08, 00:52:04,VALID,1003.65,VALID,0,VALID,93.5072,VALID,0,VALID,24.307,VALID,359,VALID,0,
2009-05-08, 00:53:04,VALID,1003.62,VALID,0,VALID,93.5606,VALID,0,VALID,24.3265,VALID,359,VALID,0,
2009-05-08, 00:54:04,VALID,1003.62,VALID,0,VALID,93.5911,VALID,0,VALID,24.307,VALID,359,VALID,0,
2009-05-08, 00:55:04,VALID,1003.62,VALID,0,VALID,93.6369,VALID,0,VALID,24.307,VALID,359,VALID,0,
2009-05-08, 00:56:04,VALID,1003.57,VALID,0,VALID,93.614,VALID,0,VALID,24.307,VALID,359,VALID,0,
2009-05-08, 00:57:04,VALID,1003.57,VALID,0,VALID,93.6369,VALID,0,VALID,24.2875,VALID,359,VALID,0,
2009-05-08, 00:58:04,VALID,1003.56,VALID,0,VALID,93.6369,VALID,0,VALID,24.2875,VALID,359,VALID,0,
2009-05-08, 00:59:04,VALID,1003.53,VALID,0,VALID,93.5987,VALID,0,VALID,24.2681,VALID,359,VALID,0.302344,
2009-05-08, 01:00:04,VALID,1003.54,VALID,0,VALID,93.5835,VALID,0,VALID,24.2291,VALID,359,VALID,0.355859,
2009-05-08, 01:01:04,VALID,1003.54,VALID,0,VALID,93.614,VALID,0,VALID,24.2291,VALID,359,VALID,0.185547,
2009-05-08, 01:02:04,VALID,1003.52,VALID,0,VALID,93.6216,VALID,0,VALID,24.2097,VALID,359,VALID,0.169141,
2009-05-08, 01:03:04,VALID,1003.55,VALID,0,VALID,93.5987,VALID,0,VALID,24.1902,VALID,359,VALID,0.0722656,
2009-05-08, 01:04:04,VALID,1003.54,VALID,0,VALID,93.6521,VALID,0,VALID,24.1902,VALID,359,VALID,0.116016,
2009-05-08, 01:05:04,VALID,1003.51,VALID,0,VALID,93.6903,VALID,0,VALID,24.1689,VALID,359,VALID,0,
2009-05-08, 01:06:04,VALID,1003.51,VALID,0,VALID,93.7437,VALID,0,VALID,24.1902,VALID,359,VALID,0,
2009-05-08, 01:07:04,VALID,1003.5,VALID,0,VALID,93.881,VALID,0,VALID,24.2291,VALID,359,VALID,0.251172,
2009-05-08, 01:08:04,VALID,1003.52,VALID,0,VALID,93.9039,VALID,0,VALID,24.2291,VALID,359,VALID,0.152734,
2009-05-08, 01:09:04,VALID,1003.51,VALID,0,VALID,93.8123,VALID,0,VALID,24.2097,VALID,359,VALID,0.239063,
2009-05-08, 01:10:04,VALID,1003.51,VALID,0,VALID,93.942,VALID,0,VALID,24.231,VALID,359,VALID,0.132031,
2009-05-08, 01:11:04,VALID,1003.49,VALID,0,VALID,94.0336,VALID,0,VALID,24.2681,VALID,359,VALID,0,
2009-05-08, 01:12:04,VALID,1003.52,VALID,0,VALID,94.1251,VALID,0,VALID,24.307,VALID,359,VALID,0,
2009-05-08, 01:13:04,VALID,1003.51,VALID,0,VALID,94.0946,VALID,0,VALID,24.3265,VALID,359,VALID,0,
2009-05-08, 01:14:04,VALID,1003.52,VALID,0,VALID,93.9725,VALID,0,VALID,24.3283,VALID,359,VALID,0,
2009-05-08, 01:15:04,VALID,1003.52,VALID,0,VALID,93.9191,VALID,0,VALID,24.2681,VALID,359,VALID,0.247266,
2009-05-08, 01:16:04,VALID,1003.51,VALID,0,VALID,93.9573,VALID,0,VALID,24.2681,VALID,359,VALID,0.227734,
2009-05-08, 01:17:04,VALID,1003.5,VALID,0,VALID,93.9725,VALID,0,VALID,24.2681,VALID,359,VALID,0.245312,
2009-05-08, 01:18:04,VALID,1003.51,VALID,0,VALID,93.9039,VALID,0,VALID,24.2291,VALID,359,VALID,0.364453,
2009-05-08, 01:19:04,VALID,1003.49,VALID,0,VALID,94.1099,VALID,0,VALID,24.2486,VALID,359,VALID,0.0847656,
2009-05-08, 01:20:04,VALID,1003.49,VALID,0,VALID,93.9802,VALID,0,VALID,24.2291,VALID,359,VALID,0.285547,
2009-05-08, 01:21:04,VALID,1003.5,VALID,0,VALID,94.0259,VALID,0,VALID,24.2291,VALID,359,VALID,0.230859,
2009-05-08, 01:22:04,VALID,1003.49,VALID,0,VALID,94.0259,VALID,0,VALID,24.2291,VALID,359,VALID,0.220703,
2009-05-08, 01:23:04,VALID,1003.48,VALID,0,VALID,94.1785,VALID,0,VALID,24.2875,VALID,359,VALID,0.388281,
2009-05-08, 01:24:04,VALID,1003.47,VALID,0,VALID,94.1862,VALID,0,VALID,24.2875,VALID,359,VALID,0.416406,
2009-05-08, 01:25:04,VALID,1003.42,VALID,0,VALID,94.0488,VALID,0,VALID,24.2681,VALID,359,VALID,0.599219,
2009-05-08, 01:26:04,VALID,1003.41,VALID,0,VALID,94.0412,VALID,0,VALID,24.2486,VALID,359,VALID,0.545703,
2009-05-08, 01:27:04,VALID,1003.42,VALID,0,VALID,94.0565,VALID,0,VALID,24.2291,VALID,359,VALID,0.434375,
2009-05-08, 01:28:04,VALID,1003.42,VALID,0,VALID,94.087,VALID,0,VALID,24.2291,VALID,359,VALID,0.422656,
2009-05-08, 01:29:04,VALID,1003.43,VALID,0,VALID,94.1099,VALID,0,VALID,24.1884,VALID,359,VALID,0.297656,
2009-05-08, 01:30:04,VALID,1003.46,VALID,0,VALID,94.1099,VALID,0,VALID,24.2097,VALID,359,VALID,0.335547,
2009-05-08, 01:31:04,VALID,1003.43,VALID,0,VALID,94.0641,VALID,0,VALID,24.1689,VALID,359,VALID,0.414844,
2009-05-08, 01:32:04,VALID,1003.44,VALID,0,VALID,94.0717,VALID,0,VALID,24.1494,VALID,359,VALID,0.460156,
2009-05-08, 01:33:04,VALID,1003.45,VALID,0,VALID,94.1328,VALID,0,VALID,24.1707,VALID,359,VALID,0.483203,
2009-05-08, 01:34:04,VALID,1003.44,VALID,0,VALID,94.1785,VALID,0,VALID,24.1707,VALID,359,VALID,0.397656,
2009-05-08, 01:35:04,VALID,1003.39,VALID,0,VALID,94.2167,VALID,0,VALID,24.1707,VALID,359,VALID,0.253125,
2009-05-08, 01:36:04,VALID,1003.38,VALID,0,VALID,94.3006,VALID,0,VALID,24.1689,VALID,359,VALID,0.259375,
2009-05-08, 01:37:04,VALID,1003.37,VALID,0,VALID,94.3311,VALID,0,VALID,24.2291,VALID,359,VALID,0.264062,
2009-05-08, 01:38:04,VALID,1003.39,VALID,0,VALID,94.3464,VALID,0,VALID,24.2291,VALID,359,VALID,0.348437,
2009-05-08, 01:39:04,VALID,1003.35,VALID,0,VALID,94.3769,VALID,0,VALID,24.2486,VALID,359,VALID,0.399219,
2009-05-08, 01:40:04,VALID,1003.34,VALID,0,VALID,94.4532,VALID,0,VALID,24.3265,VALID,359,VALID,0.403906,
2009-05-08, 01:41:04,VALID,1003.34,VALID,0,VALID,94.4913,VALID,0,VALID,24.3867,VALID,359,VALID,0.45,
2009-05-08, 01:42:04,VALID,1003.34,VALID,0,VALID,94.4608,VALID,0.100563,VALID,24.3617,VALID,359,VALID,0.355469,
2009-05-08, 01:43:04,VALID,1003.34,VALID,0,VALID,94.3311,VALID,0.100563,VALID,24.3422,VALID,359,VALID,0.292188,
2009-05-08, 01:44:04,VALID,1003.33,VALID,0,VALID,94.3082,VALID,0.100563,VALID,24.3617,VALID,359,VALID,0.0117188,
2009-05-08, 01:45:04,VALID,1003.31,VALID,0,VALID,94.3235,VALID,0.100563,VALID,24.3812,VALID,359,VALID,0.251172,
2009-05-08, 01:46:04,VALID,1003.33,VALID,0,VALID,94.2548,VALID,0.100563,VALID,24.4025,VALID,359,VALID,0.332422,
2009-05-08, 01:47:04,VALID,1003.33,VALID,0,VALID,94.2167,VALID,0.100563,VALID,24.3812,VALID,359,VALID,0,
2009-05-08, 01:48:04,VALID,1003.34,VALID,0,VALID,94.1633,VALID,0.100563,VALID,24.4006,VALID,359,VALID,0.0890625,
2009-05-08, 01:49:04,VALID,1003.34,VALID,0,VALID,94.1328,VALID,0,VALID,24.383,VALID,359,VALID,0.299219,
2009-05-08, 01:50:04,VALID,1003.33,VALID,0,VALID,94.1099,VALID,0.100563,VALID,24.3812,VALID,359,VALID,0.034375,
2009-05-08, 01:51:04,VALID,1003.35,VALID,0,VALID,94.2014,VALID,0.100563,VALID,24.4414,VALID,359,VALID,0.153125,
2009-05-08, 01:52:04,VALID,1003.32,VALID,0,VALID,94.2014,VALID,0.100563,VALID,24.4804,VALID,359,VALID,0,
2009-05-08, 01:53:04,VALID,1003.31,VALID,0,VALID,94.1633,VALID,0.100563,VALID,24.4785,VALID,359,VALID,0,
2009-05-08, 01:54:04,VALID,1003.29,VALID,0,VALID,94.1251,VALID,0,VALID,24.498,VALID,359,VALID,0,
2009-05-08, 01:55:04,VALID,1003.25,VALID,0,VALID,94.0259,VALID,0.100563,VALID,24.4785,VALID,359,VALID,0,
2009-05-08, 01:56:04,VALID,1003.24,VALID,0,VALID,94.0183,VALID,0.100563,VALID,24.498,VALID,359,VALID,0,
2009-05-08, 01:57:04,VALID,1003.24,VALID,0,VALID,94.0031,VALID,0,VALID,24.5193,VALID,359,VALID,0,
2009-05-08, 01:58:04,VALID,1003.23,VALID,0,VALID,93.9802,VALID,0,VALID,24.5406,VALID,359,VALID,0,
2009-05-08, 01:59:04,VALID,1003.19,VALID,0,VALID,94.0641,VALID,0,VALID,24.5582,VALID,359,VALID,0.301562,
2009-05-08, 02:00:04,VALID,1003.19,VALID,0,VALID,93.9725,VALID,0,VALID,24.5601,VALID,359,VALID,0.316406,
2009-05-08, 02:01:04,VALID,1003.17,VALID,0,VALID,93.9573,VALID,0,VALID,24.5406,VALID,359,VALID,0,
2009-05-08, 02:02:04,VALID,1003.12,VALID,0,VALID,94.0183,VALID,0,VALID,24.5582,VALID,359,VALID,0.280469,
2009-05-08, 02:03:04,VALID,1003.1,VALID,0,VALID,94.0031,VALID,0,VALID,24.5758,VALID,359,VALID,0.0195313,
2009-05-08, 02:04:04,VALID,1003.11,VALID,0,VALID,93.9954,VALID,0,VALID,24.6185,VALID,359,VALID,0.364453,
2009-05-08, 02:05:04,VALID,1003.09,VALID,0,VALID,93.9573,VALID,0,VALID,24.6361,VALID,359,VALID,0.168359,
2009-05-08, 02:06:04,VALID,1003.08,VALID,0,VALID,93.8047,VALID,0,VALID,24.6166,VALID,359,VALID,0.426953,
2009-05-08, 02:07:04,VALID,1003.02,VALID,0,VALID,93.7208,VALID,0,VALID,24.5972,VALID,359,VALID,0.372266,
2009-05-08, 02:08:04,VALID,1003.02,VALID,0,VALID,93.7055,VALID,0,VALID,24.638,VALID,359,VALID,0.521875,
2009-05-08, 02:09:04,VALID,1002.98,VALID,0,VALID,93.6826,VALID,0,VALID,24.6574,VALID,359,VALID,0.432813,
2009-05-08, 02:10:04,VALID,1002.97,VALID,0,VALID,93.6292,VALID,0,VALID,24.638,VALID,359,VALID,0.267188,
2009-05-08, 02:11:04,VALID,1002.96,VALID,0,VALID,93.5987,VALID,0,VALID,24.6166,VALID,359,VALID,0.165625,
2009-05-08, 02:12:04,VALID,1002.96,VALID,0,VALID,93.7666,VALID,0.100563,VALID,24.6361,VALID,338,VALID,0.703125,
2009-05-08, 02:13:04,VALID,1002.95,VALID,0,VALID,93.7666,VALID,0.100563,VALID,24.6945,VALID,329,VALID,0.188281,
2009-05-08, 02:14:04,VALID,1002.93,VALID,0,VALID,93.7895,VALID,0.100563,VALID,24.7335,VALID,329,VALID,0.253906,
2009-05-08, 02:15:04,VALID,1002.93,VALID,0,VALID,93.7208,VALID,0.100563,VALID,24.751,VALID,341,VALID,0.326562,
2009-05-08, 02:16:04,VALID,1002.87,VALID,0,VALID,93.6445,VALID,0.100563,VALID,24.8308,VALID,341,VALID,0.342969,
2009-05-08, 02:17:04,VALID,1002.89,VALID,0,VALID,93.553,VALID,0,VALID,24.8697,VALID,341,VALID,0.293359,
2009-05-08, 02:18:04,VALID,1002.9,VALID,0,VALID,93.408,VALID,0,VALID,24.8679,VALID,331,VALID,0.688672,
2009-05-08, 02:19:04,VALID,1002.88,VALID,0,VALID,93.2478,VALID,0.100563,VALID,24.9671,VALID,351,VALID,0.663281,
2009-05-08, 02:20:04,VALID,1002.9,VALID,0,VALID,93.0418,VALID,0.100563,VALID,25.0041,VALID,347,VALID,0.857813,
2009-05-08, 02:21:04,VALID,1002.87,VALID,0,VALID,92.6451,VALID,0.100563,VALID,25.082,VALID,345,VALID,0.691016,
2009-05-08, 02:22:04,VALID,1002.87,VALID,0,VALID,92.2942,VALID,0.100563,VALID,25.1618,VALID,346,VALID,0.594922,
2009-05-08, 02:23:04,VALID,1002.88,VALID,0,VALID,92.1264,VALID,0.100563,VALID,25.1599,VALID,346,VALID,0.36875,
2009-05-08, 02:24:04,VALID,1002.86,VALID,0,VALID,91.8441,VALID,0.100563,VALID,25.2007,VALID,344,VALID,0.484375,
2009-05-08, 02:25:04,VALID,1002.84,VALID,0,VALID,91.5389,VALID,0.100563,VALID,25.2397,VALID,341,VALID,0.430078,
2009-05-08, 02:26:04,VALID,1002.87,VALID,0,VALID,91.2872,VALID,0.100563,VALID,25.2767,VALID,345,VALID,0.799609,
2009-05-08, 02:27:04,VALID,1002.85,VALID,0,VALID,91.0202,VALID,0.100563,VALID,25.3565,VALID,343,VALID,0.242969,
2009-05-08, 02:28:04,VALID,1002.88,VALID,0,VALID,90.6921,VALID,0.100563,VALID,25.376,VALID,340,VALID,0.669141,
2009-05-08, 02:29:04,VALID,1002.9,VALID,0,VALID,90.4251,VALID,0.100563,VALID,25.3955,VALID,343,VALID,0.3125,
2009-05-08, 02:30:04,VALID,1002.9,VALID,0,VALID,90.2649,VALID,0,VALID,25.4344,VALID,320,VALID,0.571875,
2009-05-08, 02:31:04,VALID,1002.91,VALID,0,VALID,90.0971,VALID,0,VALID,25.4539,VALID,310,VALID,0.332812,
2009-05-08, 02:32:04,VALID,1002.92,VALID,0,VALID,89.8682,VALID,0.100563,VALID,25.4539,VALID,310,VALID,0.396484,
2009-05-08, 02:33:04,VALID,1002.91,VALID,0,VALID,89.6927,VALID,0.100563,VALID,25.5123,VALID,321,VALID,0.314844,
2009-05-08, 02:34:04,VALID,1002.95,VALID,0,VALID,89.5325,VALID,0,VALID,25.5123,VALID,325,VALID,0.398438,
2009-05-08, 02:35:04,VALID,1002.94,VALID,0,VALID,89.4028,VALID,0,VALID,25.4909,VALID,345,VALID,0.573438,
2009-05-08, 02:36:04,VALID,1002.92,VALID,0,VALID,89.3571,VALID,0.100563,VALID,25.5142,VALID,345,VALID,0.242188,
2009-05-08, 02:37:04,VALID,1002.94,VALID,0,VALID,89.4334,VALID,0,VALID,25.4928,VALID,345,VALID,0.361719,
2009-05-08, 02:38:04,VALID,1002.96,VALID,0,VALID,89.4257,VALID,0.100563,VALID,25.4539,VALID,345,VALID,0.476563,
2009-05-08, 02:39:04,VALID,1002.94,VALID,0,VALID,89.4257,VALID,0.100563,VALID,25.4734,VALID,346,VALID,0.655859,
2009-05-08, 02:40:04,VALID,1002.93,VALID,0,VALID,89.1587,VALID,0,VALID,25.5123,VALID,351,VALID,0.682422,
2009-05-08, 02:41:04,VALID,1002.91,VALID,0,VALID,88.8612,VALID,0.100563,VALID,25.5318,VALID,351,VALID,0.5625,
2009-05-08, 02:42:04,VALID,1002.92,VALID,0,VALID,88.7391,VALID,0,VALID,25.5513,VALID,345,VALID,0.484375,
2009-05-08, 02:43:04,VALID,1002.9,VALID,0,VALID,88.6247,VALID,0.100563,VALID,25.5707,VALID,346,VALID,0.567969,
2009-05-08, 02:44:04,VALID,1002.89,VALID,0,VALID,88.5713,VALID,0.100563,VALID,25.5902,VALID,344,VALID,0.728516,
2009-05-08, 02:45:04,VALID,1002.9,VALID,0,VALID,88.4187,VALID,0.100563,VALID,25.5902,VALID,346,VALID,0.436719,
2009-05-08, 02:46:04,VALID,1002.92,VALID,0,VALID,88.3729,VALID,0,VALID,25.5902,VALID,346,VALID,0.303516,
2009-05-08, 02:47:04,VALID,1002.92,VALID,0,VALID,88.3119,VALID,0,VALID,25.6097,VALID,346,VALID,0.557422,
2009-05-08, 02:48:04,VALID,1002.93,VALID,0,VALID,88.1975,VALID,0.100563,VALID,25.6292,VALID,336,VALID,0.530469,
2009-05-08, 02:49:04,VALID,1002.92,VALID,0,VALID,88.1288,VALID,0,VALID,25.6292,VALID,337,VALID,0.380078,
2009-05-08, 02:50:04,VALID,1002.95,VALID,0,VALID,88.1288,VALID,0.100563,VALID,25.6292,VALID,338,VALID,0.419141,
2009-05-08, 02:51:04,VALID,1002.93,VALID,0,VALID,88.0144,VALID,0,VALID,25.6486,VALID,338,VALID,0.391406,
2009-05-08, 02:52:04,VALID,1002.91,VALID,0,VALID,87.9534,VALID,0.100563,VALID,25.6486,VALID,338,VALID,0.423438,
2009-05-08, 02:53:04,VALID,1002.9,VALID,0,VALID,88.0068,VALID,0,VALID,25.6292,VALID,337,VALID,0.203516,
2009-05-08, 02:54:04,VALID,1002.92,VALID,0,VALID,87.9839,VALID,0,VALID,25.6486,VALID,337,VALID,0.179688,
2009-05-08, 02:55:04,VALID,1002.88,VALID,0,VALID,88.0754,VALID,0,VALID,25.6272,VALID,346,VALID,0.421094,
2009-05-08, 02:56:04,VALID,1002.88,VALID,0,VALID,88.1288,VALID,0,VALID,25.67,VALID,2,VALID,0.539063,
2009-05-08, 02:57:04,VALID,1002.89,VALID,0,VALID,88.0831,VALID,0,VALID,25.6292,VALID,1,VALID,0.414453,
2009-05-08, 02:58:04,VALID,1002.86,VALID,0,VALID,87.9915,VALID,0,VALID,25.6506,VALID,357,VALID,0.38125,
2009-05-08, 02:59:04,VALID,1002.85,VALID,0,VALID,88.0602,VALID,0,VALID,25.6506,VALID,347,VALID,0.827734,
2009-05-08, 03:00:04,VALID,1002.83,VALID,0,VALID,88.0068,VALID,0,VALID,25.6681,VALID,347,VALID,0.413281,
2009-05-08, 03:01:04,VALID,1002.84,VALID,0,VALID,87.9228,VALID,0,VALID,25.67,VALID,347,VALID,0.485938,
2009-05-08, 03:02:04,VALID,1002.85,VALID,0,VALID,87.9686,VALID,0,VALID,25.6506,VALID,333,VALID,0.711328,
2009-05-08, 03:03:04,VALID,1002.88,VALID,0,VALID,88.0373,VALID,0,VALID,25.6506,VALID,331,VALID,0.425781,
2009-05-08, 03:04:04,VALID,1002.89,VALID,0,VALID,88.1899,VALID,0,VALID,25.6097,VALID,336,VALID,0.618359,
2009-05-08, 03:05:04,VALID,1002.89,VALID,0,VALID,88.1822,VALID,0,VALID,25.5883,VALID,339,VALID,0.341797,
2009-05-08, 03:06:04,VALID,1002.89,VALID,0,VALID,88.1517,VALID,0,VALID,25.6097,VALID,340,VALID,0.537891,
2009-05-08, 03:07:04,VALID,1002.88,VALID,0,VALID,88.1593,VALID,0,VALID,25.5883,VALID,306,VALID,0.407422,
2009-05-08, 03:08:04,VALID,1002.89,VALID,0,VALID,88.1365,VALID,0,VALID,25.5707,VALID,322,VALID,0.4125,
2009-05-08, 03:09:04,VALID,1002.89,VALID,0,VALID,88.1822,VALID,0.100563,VALID,25.5513,VALID,324,VALID,0.432031,
2009-05-08, 03:10:04,VALID,1002.9,VALID,0,VALID,88.4569,VALID,0,VALID,25.4928,VALID,325,VALID,0.365625,
2009-05-08, 03:11:04,VALID,1002.89,VALID,0,VALID,88.6934,VALID,0,VALID,25.4558,VALID,340,VALID,0.314063,
2009-05-08, 03:12:04,VALID,1002.89,VALID,0,VALID,88.9833,VALID,0,VALID,25.376,VALID,341,VALID,0.473437,
2009-05-08, 03:13:04,VALID,1002.9,VALID,0,VALID,89.1511,VALID,0,VALID,25.3974,VALID,342,VALID,0.570313,
2009-05-08, 03:14:04,VALID,1002.91,VALID,0,VALID,89.3266,VALID,0.100563,VALID,25.337,VALID,340,VALID,0.426172,
2009-05-08, 03:15:04,VALID,1002.91,VALID,0,VALID,89.502,VALID,0,VALID,25.3176,VALID,340,VALID,0.416016,
2009-05-08, 03:16:04,VALID,1002.94,VALID,0,VALID,89.502,VALID,0,VALID,25.2981,VALID,340,VALID,0.310937,
2009-05-08, 03:17:04,VALID,1002.91,VALID,0,VALID,89.6775,VALID,0,VALID,25.2786,VALID,347,VALID,0.417578,
2009-05-08, 03:18:04,VALID,1002.91,VALID,0,VALID,89.708,VALID,0.100563,VALID,25.2592,VALID,347,VALID,0.258203,
2009-05-08, 03:19:04,VALID,1002.9,VALID,0,VALID,89.6546,VALID,0.100563,VALID,25.2202,VALID,347,VALID,0.452344,
2009-05-08, 03:20:04,VALID,1002.9,VALID,0,VALID,89.7538,VALID,0,VALID,25.2007,VALID,347,VALID,0.207422,
2009-05-08, 03:21:04,VALID,1002.9,VALID,0,VALID,89.9674,VALID,0,VALID,25.2027,VALID,347,VALID,0.617969,
2009-05-08, 03:22:04,VALID,1002.85,VALID,0,VALID,90.2191,VALID,0,VALID,25.1423,VALID,347,VALID,0.542969,
2009-05-08, 03:23:04,VALID,1002.87,VALID,0,VALID,90.2954,VALID,0.100563,VALID,25.1442,VALID,347,VALID,0.292969,
2009-05-08, 03:24:04,VALID,1002.84,VALID,0,VALID,90.4709,VALID,0,VALID,25.082,VALID,347,VALID,0.488672,
2009-05-08, 03:25:04,VALID,1002.82,VALID,0,VALID,90.448,VALID,0.100563,VALID,25.1229,VALID,346,VALID,0.478906,
2009-05-08, 03:26:04,VALID,1002.82,VALID,0,VALID,90.4175,VALID,0.100563,VALID,25.1423,VALID,346,VALID,0.446094,
2009-05-08, 03:27:04,VALID,1002.82,VALID,0,VALID,90.3946,VALID,0,VALID,25.1461,VALID,346,VALID,0.327344,
2009-05-08, 03:28:04,VALID,1002.82,VALID,0,VALID,90.4709,VALID,0,VALID,25.1248,VALID,346,VALID,0.579687,
2009-05-08, 03:29:04,VALID,1002.82,VALID,0,VALID,90.3641,VALID,0,VALID,25.1248,VALID,346,VALID,0.477734,
2009-05-08, 03:30:04,VALID,1002.79,VALID,0,VALID,90.2954,VALID,0,VALID,25.1461,VALID,347,VALID,0.426953,
2009-05-08, 03:31:04,VALID,1002.81,VALID,0,VALID,90.3565,VALID,0,VALID,25.1248,VALID,350,VALID,0.703125,
2009-05-08, 03:32:04,VALID,1002.83,VALID,0,VALID,90.3412,VALID,0,VALID,25.1248,VALID,349,VALID,0.389453,
2009-05-08, 03:33:04,VALID,1002.78,VALID,0,VALID,90.2268,VALID,0,VALID,25.1229,VALID,349,VALID,0.310937,
2009-05-08, 03:34:04,VALID,1002.81,VALID,0,VALID,90.1505,VALID,0,VALID,25.1229,VALID,349,VALID,0.363281,
2009-05-08, 03:35:04,VALID,1002.87,VALID,0,VALID,90.1352,VALID,0,VALID,25.1034,VALID,349,VALID,0,
2009-05-08, 03:36:04,VALID,1002.84,VALID,0,VALID,90.0818,VALID,0,VALID,25.1267,VALID,349,VALID,0,
2009-05-08, 03:37:04,VALID,1002.86,VALID,0,VALID,90.0742,VALID,0,VALID,25.0858,VALID,349,VALID,0,
2009-05-08, 03:38:04,VALID,1002.85,VALID,0,VALID,90.1886,VALID,0,VALID,25.0663,VALID,349,VALID,0.009375,
2009-05-08, 03:39:04,VALID,1002.89,VALID,0,VALID,90.3336,VALID,0,VALID,25.0274,VALID,349,VALID,0.00078125,
2009-05-08, 03:40:04,VALID,1002.89,VALID,0,VALID,90.4327,VALID,0,VALID,25.0274,VALID,349,VALID,0,
2009-05-08, 03:41:04,VALID,1002.87,VALID,0,VALID,90.4785,VALID,0,VALID,25.0079,VALID,349,VALID,0,
2009-05-08, 03:42:04,VALID,1002.91,VALID,0,VALID,90.5472,VALID,0,VALID,24.9671,VALID,349,VALID,0.314453,
2009-05-08, 03:43:04,VALID,1002.94,VALID,0,VALID,90.6387,VALID,0,VALID,24.9476,VALID,349,VALID,0.297656,
2009-05-08, 03:44:04,VALID,1002.95,VALID,0,VALID,90.9515,VALID,0,VALID,24.9476,VALID,349,VALID,0.346875,
2009-05-08, 03:45:04,VALID,1002.95,VALID,0,VALID,90.9668,VALID,0,VALID,24.9476,VALID,349,VALID,0.0113281,